Location: Astronomy Club of Akron Observatory
(40.9700°N, 81.5606°W)
Time: 16:04:13
(UTC-04:00)

ISS - Pass Details

Date: 21 July 2018
Orbit: 402 x 408 km, 51.6° (Epoch: 17 July)

Event Time Altitude Azimuth Distance (km) Brightness Sun altitude
Rises 03:09:51 0° 311° (NW) 2,330 0.2 -24.6°
Reaches altitude 10° 03:12:12 10° 326° (NW) 1,468 -0.7 -24.4°
Maximum altitude 03:14:57 24° 22° (NNE) 895 -1.4 -24.1°
Drops below altitude 10° 03:17:41 10° 79° (E) 1,466 -0.6 -23.9°
Sets 03:20:02 0° 94° (E) 2,325 0.3 -23.7°
